TimePST,TemperatureF,Dew PointF,Humidity,Sea Level PressureIn,VisibilityMPH,Wind Direction,Wind SpeedMPH,Gust SpeedMPH,PrecipitationIn,Events,Conditions,WindDirDegrees,DateUTC
12:53 AM,45.0,41.0,86,30.21,10.0,SE,5.8,-,0.01,Rain,Light Rain,140,2012-11-23 08:53:00
1:53 AM,44.1,41.0,89,30.18,9.0,Calm,Calm,-,0.03,Rain,Light Rain,0,2012-11-23 09:53:00
2:53 AM,44.1,41.0,89,30.17,10.0,East,3.5,-,0.01,Rain,Light Rain,80,2012-11-23 10:53:00
3:53 AM,44.6,42.8,93,30.15,10.0,Calm,Calm,-,N/A,Rain,Light Rain,0,2012-11-23 11:53:00
4:53 AM,45.0,42.1,90,30.16,8.0,Calm,Calm,-,0.01,Rain,Light Rain,0,2012-11-23 12:53:00
5:53 AM,45.0,43.0,93,30.12,10.0,Calm,Calm,-,0.03,Rain,Light Rain,0,2012-11-23 13:53:00
6:53 AM,45.0,42.1,90,30.12,7.0,Calm,Calm,-,0.03,Rain,Light Rain,0,2012-11-23 14:53:00
7:53 AM,46.0,43.0,89,30.12,10.0,Calm,Calm,-,0.02,Rain,Light Rain,0,2012-11-23 15:53:00
8:50 AM,44.6,42.8,93,30.13,2.0,Calm,Calm,-,0.12,Rain,Rain,0,2012-11-23 16:50:00
8:53 AM,45.0,43.0,93,30.13,2.0,Calm,Calm,-,0.13,Rain,Heavy Rain,0,2012-11-23 16:53:00
9:10 AM,44.6,42.8,93,30.12,5.0,Calm,Calm,-,0.04,Rain,Light Rain,0,2012-11-23 17:10:00
9:30 AM,44.6,42.8,93,30.12,4.0,SE,3.5,-,0.09,Rain,Rain,140,2012-11-23 17:30:00
9:53 AM,45.0,44.1,97,30.12,4.0,Calm,Calm,-,0.11,Rain,Light Rain,0,2012-11-23 17:53:00
10:53 AM,46.0,44.1,93,30.10,3.0,East,3.5,-,0.08,Rain,Light Rain,100,2012-11-23 18:53:00
11:53 AM,46.0,45.0,96,30.10,3.0,Calm,Calm,-,0.05,Rain,Light Rain,0,2012-11-23 19:53:00
12:53 PM,48.0,45.0,89,30.07,6.0,SE,3.5,-,0.03,Rain,Light Rain,130,2012-11-23 20:53:00
1:00 PM,48.2,46.4,93,30.08,2.0,Calm,Calm,-,0.01,Rain,Light Rain,0,2012-11-23 21:00:00
1:26 PM,48.2,46.4,93,30.07,1.5,SE,4.6,-,0.12,Rain,Rain,130,2012-11-23 21:26:00
1:53 PM,48.0,46.0,93,30.07,1.5,SE,3.5,-,0.21,Rain,Rain,130,2012-11-23 21:53:00
2:53 PM,48.0,46.0,93,30.06,4.0,SE,5.8,-,0.13,Rain,Light Rain,140,2012-11-23 22:53:00
3:00 PM,48.2,46.4,93,30.04,3.0,SE,6.9,-,0.01,Rain,Light Rain,130,2012-11-23 23:00:00
3:53 PM,48.2,46.4,93,30.05,3.0,SE,4.6,-,N/A,Rain,Light Rain,140,2012-11-23 23:53:00
4:00 PM,48.2,46.4,93,30.05,4.0,SE,5.8,-,0.00,Rain,Light Rain,140,2012-11-24 00:00:00
4:07 PM,48.2,46.4,93,30.05,3.0,SE,6.9,-,0.00,Rain,Light Rain,140,2012-11-24 00:07:00
4:53 PM,48.9,46.9,93,30.04,5.0,SE,4.6,-,0.00,,Overcast,140,2012-11-24 00:53:00
5:51 PM,48.2,48.2,100,30.03,5.0,Calm,Calm,-,0.01,,Overcast,0,2012-11-24 01:51:00
5:53 PM,48.9,48.0,97,30.04,5.0,Calm,Calm,-,0.01,,Overcast,0,2012-11-24 01:53:00
6:18 PM,48.2,46.4,93,30.04,2.0,Calm,Calm,-,0.00,Rain,Light Rain,0,2012-11-24 02:18:00
6:53 PM,50.0,48.0,93,30.04,5.0,West,3.5,-,0.01,,Overcast,260,2012-11-24 02:53:00
7:53 PM,50.0,48.0,93,30.07,4.0,WSW,4.6,-,0.02,Rain,Light Rain,250,2012-11-24 03:53:00
8:53 PM,50.0,46.9,89,30.08,4.0,SW,6.9,-,0.02,,Overcast,220,2012-11-24 04:53:00
9:53 PM,50.0,46.9,89,30.09,10.0,Variable,3.5,-,0.01,,Overcast,0,2012-11-24 05:53:00
10:53 PM,50.0,46.0,86,30.12,10.0,Calm,Calm,-,N/A,,Overcast,0,2012-11-24 06:53:00
11:53 PM,50.0,46.0,86,30.14,10.0,Calm,Calm,-,N/A,,Overcast,0,2012-11-24 07:53:00